Theta_e
322 320 319 318 318 317 317 317 316 316 315 316 315 315 315 315 315 314 314 314 314 314 314 314 314 314 314 314 315 315 315 315 315 316 316 316 316 317 317 318 318 318 318 317 319 322 325 325 325 325 325 325 326 326 327 326 326 326 326 326 326 326 327 328 328 328 327 328 328 328 328 327 327 326 325 325 325 326 327 328 329 330 328 326 326
319 318 318 317 316 316 315 315 315 315 315 315 315 314 314 314 314 314 314 314 314 314 314 314 314 314 314 314 315 315 316 316 316 316 317 317 318 318 318 319 319 319 319 318 318 320 321 322 322 322 324 325 326 327 328 327 326 326 326 326 327 327 327 327 328 328 328 328 328 328 328 327 327 327 327 327 327 327 327 328 329 330 328 327 326
318 318 317 316 315 315 314 315 315 315 315 314 314 314 313 313 313 313 313 313 313 313 313 313 314 314 314 315 316 316 317 317 317 317 318 318 319 319 320 320 320 319 319 319 319 319 319 320 321 321 323 325 326 327 327 327 327 326 326 326 327 327 327 327 327 327 327 328 328 328 328 328 327 326 327 327 328 328 328 328 329 329 329 327 327
317 316 315 314 314 314 315 315 314 314 313 313 313 313 313 313 313 313 313 313 313 313 313 313 314 314 315 316 317 317 317 316 317 317 318 318 318 319 321 322 321 320 320 319 320 320 320 320 321 322 324 325 326 327 327 327 327 327 326 326 326 327 326 326 326 326 327 327 328 328 328 328 327 326 327 327 328 328 328 328 328 329 329 328 327
316 314 313 313 314 315 314 314 313 313 313 313 313 312 313 313 313 313 313 313 313 313 313 313 314 314 315 316 317 316 316 316 317 317 317 318 318 320 321 322 321 321 320 320 320 321 321 321 321 322 323 324 326 326 326 326 327 326 326 326 326 327 326 326 326 326 327 327 328 328 327 327 327 327 327 328 328 328 328 328 328 328 329 328 328
314 312 313 314 314 314 313 313 312 313 312 312 312 312 312 312 312 312 312 312 312 313 313 314 314 315 316 316 316 316 316 317 317 317 317 318 319 320 321 322 321 321 321 321 321 321 321 322 322 323 324 325 325 326 326 326 326 326 326 326 326 326 326 326 326 326 327 327 327 328 327 327 327 327 328 328 328 328 328 328 328 328 329 328 328
312 313 314 314 313 313 312 312 312 312 312 312 312 312 312 312 312 312 312 312 312 313 313 314 315 316 316 316 316 316 316 317 316 316 317 318 319 320 320 321 321 321 321 321 321 321 321 322 322 323 324 324 325 325 325 325 325 325 325 325 325 325 325 326 326 326 327 327 328 328 328 327 327 327 326 325 326 328 328 328 328 328 328 328 328
313 313 313 312 312 312 312 312 312 312 311 311 311 311 311 311 311 312 312 312 313 313 314 314 315 315 316 316 316 316 316 315 315 315 316 317 319 320 321 322 322 321 321 322 321 322 321 321 322 322 323 323 324 325 325 325 324 324 324 324 324 325 325 326 326 327 327 327 327 327 327 327 327 327 325 323 325 327 328 328 328 328 328 328 328
313 312 312 312 312 312 311 311 311 310 310 310 310 310 311 311 311 312 312 312 313 313 314 314 315 315 315 315 315 315 315 315 315 315 316 316 318 319 320 321 321 321 322 322 322 322 322 322 323 323 322 322 323 323 323 323 324 324 324 325 325 325 325 325 326 326 327 327 326 326 326 326 327 327 326 326 326 327 327 327 327 327 327 327 328
312 311 311 312 311 311 310 310 309 309 309 309 310 311 311 311 311 311 312 312 313 313 313 314 314 314 314 314 315 315 314 314 314 314 314 315 316 317 318 319 319 319 320 321 322 322 322 321 322 321 321 321 321 322 322 322 323 324 324 324 325 325 326 325 326 326 326 326 326 325 326 326 326 327 327 327 327 327 327 327 327 327 327 327 327
311 311 311 311 310 310 309 308 308 308 309 309 310 311 311 311 311 311 312 312 312 313 313 313 313 314 313 313 313 313 313 313 313 312 312 313 313 315 317 318 318 318 318 319 320 320 320 320 320 321 320 320 320 320 321 322 322 323 323 324 324 324 325 325 326 326 326 325 325 325 325 325 326 326 327 327 327 327 327 327 327 327 327 327 326
311 311 310 310 309 308 308 307 307 308 308 309 310 310 311 311 311 311 311 311 311 312 312 312 312 312 312 312 312 312 312 312 312 312 312 312 312 313 314 315 316 317 318 318 318 317 317 317 318 318 318 318 319 318 318 319 319 320 321 322 322 323 323 324 325 325 326 325 325 325 325 325 325 326 326 326 326 327 327 327 327 327 326 327 326
310 310 309 308 307 307 307 307 307 307 308 308 309 309 309 310 310 310 310 310 310 311 311 311 311 311 311 311 310 310 311 311 311 312 312 312 312 312 312 313 314 315 315 315 315 315 315 315 315 316 316 317 317 316 315 315 316 316 317 319 320 321 322 323 323 324 325 325 325 325 324 324 325 325 325 325 325 326 326 327 327 326 326 326 327
309 309 308 307 307 306 306 306 306 306 307 307 308 308 308 308 309 309 309 309 309 309 309 309 309 310 310 310 309 309 309 310 310 310 311 311 311 311 311 311 312 313 313 312 312 313 313 313 313 314 315 316 315 314 314 314 314 314 315 316 318 319 320 320 322 323 324 324 325 325 325 324 324 325 325 325 325 325 326 327 327 326 326 326 327
308 307 306 306 306 305 304 304 305 306 306 307 306 306 307 307 307 308 308 308 308 308 308 308 308 308 309 309 308 308 308 309 309 309 310 310 311 311 310 310 310 310 310 310 310 310 311 311 311 312 313 313 313 314 314 314 314 314 314 315 316 317 318 318 318 320 321 322 322 324 325 324 324 324 324 324 324 325 326 326 326 326 326 326 326
306 305 305 305 304 304 303 304 305 305 305 305 305 305 306 306 306 307 307 307 307 307 307 307 307 307 307 307 307 307 307 307 308 308 309 309 310 309 309 309 309 309 309 309 309 309 309 309 309 310 310 310 311 312 312 313 313 313 313 313 314 315 315 316 316 317 318 319 320 321 323 324 324 324 324 324 323 324 325 325 325 325 325 325 325
305 304 304 304 302 302 303 303 304 304 304 304 304 305 305 305 305 306 306 306 306 306 306 306 306 306 306 306 306 306 306 306 306 307 307 308 309 309 308 308 308 308 308 307 307 307 307 307 307 307 308 308 309 310 311 311 311 312 312 312 313 314 314 314 314 315 316 317 317 319 320 322 323 324 324 324 324 323 323 324 324 324 324 324 324
303 302 302 301 301 301 302 302 302 303 303 303 303 304 304 304 304 304 304 305 305 305 305 305 304 304 304 304 304 304 304 304 305 305 306 306 307 307 307 307 306 306 306 306 306 306 305 305 306 306 306 306 307 308 309 309 310 310 310 310 311 312 312 312 312 313 313 314 315 317 318 319 320 322 322 323 324 323 323 323 323 324 323 323 323
301 300 300 300 300 300 300 301 301 301 302 302 302 302 302 302 303 303 303 303 304 303 303 303 303 302 302 302 302 302 302 302 303 304 304 305 306 306 306 305 305 305 305 305 305 305 305 305 305 305 305 305 306 307 307 307 308 308 308 308 309 309 309 309 310 310 311 312 313 315 316 317 318 319 320 321 322 322 322 322 322 323 323 323 323
300 299 299 299 299 299 299 300 300 301 301 301 302 302 302 302 302 302 302 302 302 302 302 301 301 301 300 300 300 300 300 300 301 302 302 303 304 304 304 304 304 304 304 304 304 304 304 304 304 304 304 305 305 306 306 306 306 306 306 306 307 307 307 307 308 308 309 310 311 312 313 314 315 316 318 320 320 321 322 321 321 321 322 322 321
299 298 298 298 298 298 298 299 300 300 301 301 301 302 302 301 301 301 301 301 300 300 300 300 299 299 299 298 298 298 298 299 300 300 301 301 302 302 303 303 303 303 303 303 303 303 303 303 303 303 304 304 304 305 305 306 306 306 305 305 306 306 306 306 306 307 307 307 308 309 310 311 312 314 315 317 318 319 320 320 319 319 319 320 320
298 298 297 297 297 297 298 299 300 300 301 301 301 301 301 300 300 300 299 299 298 298 298 298 298 298 297 297 297 297 297 297 297 298 299 299 300 301 301 301 302 302 302 302 301 301 301 301 301 301 302 302 303 303 304 304 305 305 304 304 305 306 306 306 306 306 306 306 306 307 308 308 309 311 312 313 315 316 317 318 318 318 318 318 318
298 297 297 297 297 297 298 299 300 300 300 300 300 300 299 299 299 298 298 297 297 297 297 297 297 296 296 296 295 295 295 295 296 296 296 297 298 299 299 300 301 301 300 300 300 300 299 299 299 300 300 301 301 301 301 302 303 303 303 304 304 305 305 305 305 304 304 304 304 305 306 306 307 308 308 310 311 312 314 315 317 318 317 317 317
297 297 296 296 297 298 298 299 300 300 300 299 299 299 298 298 297 297 297 296 296 296 296 296 296 296 295 295 295 295 295 294 294 295 295 295 296 297 298 299 299 300 299 299 299 299 299 299 299 299 299 299 299 299 299 300 300 301 302 302 303 303 304 304 304 304 303 303 303 303 304 304 305 305 306 308 309 310 312 313 314 316 316 316 316
297 296 296 296 297 298 298 299 299 299 299 298 297 297 297 296 296 296 296 296 296 295 295 295 295 295 295 295 295 294 294 294 294 294 294 294 295 296 296 297 298 298 298 298 298 298 298 298 298 298 298 298 298 298 298 299 299 299 300 300 300 300 300 301 302 302 302 302 302 302 302 303 303 304 305 307 308 309 310 311 312 313 314 314 315
297 296 296 296 297 297 298 298 298 298 297 297 297 296 296 296 295 295 295 295 295 295 295 295 295 295 294 294 294 294 294 294 294 294 293 294 294 294 295 296 296 297 297 297 297 297 297 297 297 296 296 296 297 297 297 298 298 298 299 299 298 298 298 298 299 300 301 301 301 302 302 302 302 303 304 305 307 307 308 309 310 310 311 313 313
296 296 296 296 296 296 297 297 297 297 297 297 296 296 295 295 295 295 295 295 295 295 295 294 294 294 294 294 294 294 294 294 293 293 293 293 293 294 294 294 295 295 296 296 296 296 296 296 296 296 296 295 296 296 296 297 298 298 298 298 298 298 298 298 297 298 298 299 300 301 302 302 302 303 303 304 305 306 306 307 308 307 307 310 310
296 296 295 296 296 296 296 296 296 297 297 296 296 295 295 295 295 295 295 295 295 295 295 294 294 294 294 293 294 294 294 294 294 293 293 293 293 293 293 294 294 294 295 295 295 295 295 295 295 295 295 295 295 295 295 296 296 297 297 298 298 298 298 298 297 297 297 297 298 299 300 301 301 301 301 302 303 304 305 305 305 305 306 307 308
296 295 295 295 295 295 296 296 296 296 296 296 295 295 294 294 293 293 293 293 293 293 294 294 293 293 293 293 293 293 293 293 293 293 293 293 293 293 293 293 294 294 294 294 294 294 294 294 294 295 295 295 295 295 295 295 296 296 296 297 297 297 297 297 297 297 297 296 296 297 298 299 299 300 300 301 301 302 303 304 304 304 305 306 305
296 295 295 295 295 295 295 296 296 296 296 295 294 293 293 292 292 292 292 292 292 291 292 292 292 292 292 292 292 292 292 293 293 293 292 293 293 292 293 293 293 293 293 293 293 293 293 294 294 294 294 294 294 295 295 295 295 295 296 296 296 297 297 297 297 297 297 297 296 296 296 297 297 298 299 300 300 301 301 302 302 303 304 303 302
296 296 296 295 295 295 295 295 295 295 294 293 293 292 293 293 293 292 292 292 292 292 291 291 291 291 291 291 291 291 291 291 291 291 291 292 292 292 292 292 292 292 292 292 292 293 293 293 293 293 293 293 293 294 294 294 295 295 295 295 295 295 296 296 296 297 297 297 296 296 296 296 296 296 297 298 299 299 300 300 300 300 301 301 300
296 296 296 295 295 295 295 295 295 294 293 293 293 293 294 294 294 294 293 293 293 293 293 293 292 292 292 291 291 290 290 291 290 290 291 291 292 292 292 292 292 292 292 292 292 292 293 293 293 293 293 293 293 293 293 293 293 294 294 294 294 294 295 295 296 296 296 296 296 296 296 296 296 296 296 296 297 298 298 299 299 299 299 299 299
296 296 295 295 294 295 295 295 294 294 293 293 294 294 294 295 295 294 294 294 294 294 294 293 293 293 293 292 292 292 291 291 290 290 290 290 291 291 291 291 291 292 292 292 292 292 292 292 292 293 293 293 293 293 293 293 293 293 293 293 293 293 294 294 295 295 295 296 296 296 296 296 296 296 296 296 296 296 296 297 297 298 298 298 298
296 296 295 294 294 295 295 295 294 293 294 294 295 295 295 295 295 295 295 294 294 294 294 293 293 293 293 293 293 292 292 292 291 291 290 290 290 290 291 291 291 291 291 291 292 292 292 292 292 292 292 293 293 293 293 293 293 293 293 293 292 292 293 293 294 295 295 295 295 295 295 295 296 296 295 295 295 295 296 296 296 296 297 297 297
296 296 295 294 294 294 294 294 294 294 294 295 295 295 295 295 294 294 294 294 294 294 294 294 294 294 293 293 293 293 292 292 292 292 291 291 290 290 291 291 291 291 291 291 291 292 292 291 291 291 291 292 292 293 293 293 293 293 293 293 292 292 292 293 293 294 294 294 294 294 295 295 295 295 295 294 294 294 295 295 296 296 296 296 296
296 295 294 294 294 294 294 294 294 294 295 295 295 295 295 295 295 294 294 294 294 294 294 294 294 294 294 294 294 294 293 292 292 292 292 292 292 292 291 291 290 290 290 291 291 291 291 291 291 291 290 290 291 292 293 293 293 293 293 293 293 292 292 292 292 293 293 293 293 294 294 294 294 294 294 294 294 293 293 294 295 296 296 296 296
295 295 294 294 294 294 294 294 295 295 295 295 295 296 296 295 295 295 295 295 295 295 295 295 295 295 295 295 295 295 294 294 293 292 292 292 293 293 293 292 291 290 290 290 290 290 290 290 290 290 290 290 290 291 291 292 292 293 293 293 293 293 292 292 292 292 292 293 293 293 293 293 293 293 293 293 293 293 293 293 293 294 295 296 296
295 295 295 295 295 295 295 295 295 295 295 296 296 296 296 296 296 295 295 295 295 295 295 295 295 295 295 295 295 295 295 295 294 293 292 292 292 293 293 293 292 292 291 290 290 290 290 290 290 290 290 290 290 290 290 290 291 291 292 292 292 293 292 292 292 292 292 292 292 292 293 293 293 293 293 293 293 293 292 292 292 293 294 295 296
295 295 295 295 295 295 295 296 296 296 296 296 296 296 296 296 296 296 296 295 295 295 295 295 295 295 295 295 295 296 295 295 295 294 293 292 291 292 292 293 293 293 292 292 291 290 290 289 289 289 289 289 289 289 289 290 290 290 291 291 292 292 292 292 292 292 292 292 292 292 292 292 292 292 292 292 292 292 292 292 292 292 292 294 295
296 296 296 296 296 296 296 296 296 296 296 296 296 296 296 296 296 296 296 296 296 296 296 296 296 296 295 295 295 296 296 296 295 295 295 294 292 292 292 292 293 293 293 293 292 292 291 290 290 289 289 289 289 289 289 289 289 289 290 290 290 291 291 292 292 292 292 292 292 292 292 292 292 292 292 291 291 292 292 292 292 292 292 292 293
296 296 296 296 296 296 296 296 296 296 296 296 296 296 296 296 296 296 296 296 296 296 296 296 296 296 296 295 295 295 296 296 296 296 295 295 293 292 292 292 292 293 293 293 293 292 292 292 291 291 290 290 289 289 289 288 288 288 289 289 289 289 290 290 291 291 291 291 291 291 291 291 291 291 292 292 291 291 292 292 292 292 292 292 292
296 296 296 296 296 296 296 296 296 296 296 296 296 296 297 297 297 297 297 297 296 296 296 296 296 296 296 295 295 295 295 295 295 295 295 295 294 293 292 292 291 292 292 293 292 292 292 292 292 292 292 291 291 290 289 289 289 289 288 288 288 288 289 289 290 290 291 291 291 291 291 291 291 291 291 292 292 291 291 291 291 292 292 292 292
297 297 297 297 297 297 297 297 297 297 296 296 296 296 296 296 296 296 296 296 296 296 296 296 296 296 296 295 295 295 295 295 295 295 295 294 294 293 292 292 291 291 292 292 292 292 292 292 292 292 292 292 292 292 291 290 290 289 289 289 288 288 288 288 288 289 289 290 290 291 291 291 291 290 290 291 291 291 292 292 291 291 291 291 291
297 297 297 297 297 297 297 297 297 297 297 296 296 296 296 296 296 297 296 296 296 296 296 296 296 296 296 295 295 294 293 293 293 293 293 293 293 293 292 292 291 291 291 291 292 292 292 292 291 291 291 291 292 292 292 291 291 290 290 290 290 289 289 288 288 288 288 288 289 289 290 290 290 290 290 290 290 290 291 291 291 291 291 291 291
297 297 297 297 297 297 297 297 297 297 297 297 296 296 296 296 297 296 296 296 296 296 296 296 296 296 296 295 294 293 293 292 291 291 291 291 292 292 292 291 291 291 291 291 291 291 291 292 291 291 291 291 291 291 292 292 292 292 291 291 290 290 290 289 289 288 288 288 287 288 288 289 289 289 290 290 290 290 290 290 290 290 290 290 290
297 297 297 297 297 297 297 297 297 297 297 297 297 296 296 297 296 296 296 296 296 296 296 296 296 296 296 295 294 293 294 294 293 292 291 291 290 291 291 291 291 291 290 290 290 291 291 291 291 291 291 291 291 291 291 291 291 292 292 292 291 291 291 290 290 290 289 289 288 288 287 287 287 288 288 288 288 289 289 289 289 289 289 289 289
297 297 297 297 297 297 297 297 297 297 297 297 297 297 297 296 296 296 296 296 296 296 296 295 295 295 295 295 294 294 294 295 294 294 293 292 291 290 290 290 290 290 290 290 290 290 290 291 291 291 291 291 291 291 291 291 291 291 292 292 292 292 292 292 291 291 290 290 290 289 289 289 288 288 288 288 287 287 287 287 288 288 288 288 289
297 297 297 297 297 297 297 297 297 297 297 297 297 297 297 297 297 297 297 296 296 296 296 295 295 294 295 295 295 294 294 295 295 295 294 294 293 291 291 290 290 290 290 290 290 290 290 290 290 290 290 291 291 291 292 292 292 291 291 292 292 292 293 293 293 293 292 292 291 291 291 291 291 290 290 290 289 288 288 288 287 287 287 287 287
298 298 298 298 298 298 298 298 298 297 297 297 297 297 297 297 297 297 297 296 296 296 296 296 295 295 295 295 295 295 295 295 295 295 295 295 294 293 292 291 291 291 291 291 291 290 290 290 290 290 290 290 290 291 291 291 292 292 292 292 292 292 292 293 293 293 293 293 293 293 292 292 292 292 292 291 291 290 289 289 288 288 288 287 287
298 298 298 298 298 298 298 298 298 298 298 297 297 297 297 297 297 297 297 297 296 296 296 296 296 295 295 295 295 295 295 295 295 295 295 295 295 294 293 292 292 291 291 291 291 291 291 291 291 291 290 290 290 290 290 291 291 291 292 292 292 292 292 292 293 293 293 293 293 293 293 293 292 292 292 292 291 291 290 289 288 288 288 288 288
298 298 298 298 298 298 298 298 298 298 298 298 298 298 297 297 297 297 297 297 297 296 296 296 296 296 296 295 295 295 295 295 295 295 295 295 295 295 294 294 293 292 292 292 292 292 291 291 291 291 291 291 291 290 290 290 291 291 291 291 292 292 292 292 292 292 293 293 293 293 293 292 292 292 292 292 291 291 290 289 288 287 287 288 288
Wind_Speed
6 4 3 3 4 5 6 6 6 6 6 7 7 8 9 10 11 11 12 13 13 14 14 15 16 16 17 17 17 18 18 18 18 19 19 20 22 22 22 22 22 21 19 17 15 15 16 17 18 18 18 20 21 20 20 20 20 21 19 19 20 20 20 22 26 30 29 26 27 28 27 23 22 24 25 26 27 26 26 29 33 34 36 41 41
3 2 2 3 4 5 6 6 6 6 7 7 8 9 9 10 11 11 12 13 13 14 15 16 16 17 17 17 17 17 18 18 18 18 19 20 21 22 22 22 22 22 20 18 15 15 17 19 20 19 18 19 20 19 20 21 21 21 20 19 20 21 21 22 25 28 29 27 25 27 27 25 25 25 24 26 27 26 26 28 32 34 36 40 42
1 2 3 4 5 6 6 6 6 7 8 8 9 9 9 10 11 12 12 13 15 16 16 17 17 17 17 17 17 17 17 18 18 19 20 20 21 21 22 22 21 21 20 19 16 14 16 19 20 20 18 18 18 19 20 21 21 22 21 21 22 22 22 23 24 27 29 27 23 24 26 26 27 27 24 24 25 26 27 27 31 35 37 40 41
2 3 4 5 5 5 5 6 6 7 8 8 9 9 10 11 12 13 14 14 15 16 16 17 17 17 17 17 17 17 18 20 21 21 22 22 22 22 21 21 21 20 20 17 15 14 16 18 19 18 16 15 16 18 19 20 20 21 23 23 23 23 23 23 22 24 27 27 25 23 24 25 27 28 27 25 25 26 26 26 29 34 37 39 41
3 4 4 4 4 4 5 6 7 7 8 9 10 10 11 12 12 13 14 14 15 15 16 16 16 17 17 17 18 19 20 21 22 23 22 22 22 22 21 21 21 20 18 15 14 14 15 17 17 16 14 13 14 18 20 20 20 22 23 24 22 23 24 23 22 23 25 27 27 25 24 24 26 29 29 28 26 25 26 25 26 31 36 39 42
3 3 3 3 5 5 5 6 6 8 9 10 11 11 12 12 13 13 14 15 15 15 16 16 16 16 17 17 18 19 21 22 23 23 22 21 22 22 21 21 21 20 18 15 13 14 15 15 15 14 14 13 15 18 20 21 20 21 22 22 22 23 23 22 22 24 25 27 27 26 26 26 26 28 28 27 25 25 27 26 25 27 32 37 42
3 2 4 6 6 5 5 6 7 8 10 11 12 12 12 13 13 14 14 15 15 15 15 15 15 16 16 17 18 20 21 21 22 22 22 22 21 21 21 21 21 20 18 16 14 14 14 14 14 13 13 14 16 18 18 19 20 21 22 22 22 23 22 21 22 23 25 27 28 27 27 27 28 27 27 26 26 25 26 26 27 28 31 34 38
2 6 7 7 5 5 6 7 8 10 11 12 12 12 12 13 13 14 14 14 14 14 14 15 15 15 16 17 18 19 20 21 22 23 22 21 21 20 20 20 19 19 18 17 16 15 14 14 13 12 14 16 18 19 19 20 21 22 22 22 22 23 22 21 22 23 25 26 27 28 28 29 28 26 26 27 28 27 25 26 29 31 32 34 36
7 8 8 6 5 6 7 8 9 10 11 11 11 11 12 13 13 13 13 13 14 14 15 15 15 15 16 17 18 18 19 21 23 24 24 22 21 21 21 20 19 18 16 15 16 15 15 14 13 12 13 14 15 16 17 16 17 18 20 20 21 22 23 23 23 23 23 24 25 26 29 32 30 27 28 30 30 30 28 27 29 30 31 33 35
9 8 6 6 6 7 7 8 9 10 10 10 10 11 12 13 14 14 14 14 15 15 15 15 16 17 17 18 18 19 20 22 24 25 25 24 23 23 23 22 20 18 16 14 14 15 15 15 13 12 12 13 13 14 15 15 16 17 18 19 20 22 23 24 24 23 22 23 24 24 27 32 33 30 31 32 32 31 30 29 30 30 31 33 36
8 7 6 6 6 6 7 8 9 9 9 9 9 11 12 13 14 14 15 16 16 16 17 18 19 20 20 20 20 20 21 23 24 24 25 25 24 24 23 22 19 18 17 15 15 15 14 13 12 11 11 12 13 13 14 14 15 15 16 17 18 20 22 24 25 24 23 23 24 24 26 29 33 33 32 33 33 33 31 30 31 32 34 35 37
7 6 5 5 6 6 7 8 8 8 8 9 10 11 11 12 13 15 17 18 18 19 20 21 22 23 23 23 23 23 23 23 24 24 25 25 24 23 22 22 20 18 17 16 15 15 15 13 13 12 12 13 13 13 13 13 14 14 14 14 15 16 18 21 23 24 24 24 24 25 26 27 29 31 32 32 34 35 33 32 33 34 35 36 37
5 5 5 5 6 7 7 8 8 8 8 10 11 11 12 13 14 16 18 19 20 21 22 23 23 24 24 25 24 24 23 24 24 24 24 24 24 22 21 20 19 18 17 17 16 16 16 15 14 13 12 12 11 12 13 14 15 15 15 15 15 15 15 17 19 21 23 24 25 26 26 25 25 27 29 30 33 36 36 36 35 35 36 37 36
4 4 5 6 6 7 7 8 8 8 9 10 11 11 13 14 16 17 18 19 20 20 21 22 23 23 24 24 23 23 23 23 24 24 24 23 22 22 21 19 18 18 18 18 18 18 18 18 17 15 14 13 13 13 14 15 16 17 17 16 16 15 15 15 16 17 20 22 23 25 26 26 26 25 27 30 32 34 35 37 37 36 35 34 34
4 5 6 6 6 7 7 8 8 9 10 10 11 13 15 16 18 19 19 20 20 20 21 22 22 22 22 22 22 22 22 22 22 23 23 22 21 20 20 20 19 19 19 19 20 21 22 22 22 21 20 19 18 18 17 16 16 17 17 17 16 15 14 15 15 15 16 17 18 20 22 25 28 28 27 30 32 31 32 33 34 34 34 34 36
6 5 5 5 6 7 8 9 9 10 11 11 13 15 17 18 19 19 19 19 19 20 21 21 21 21 20 20 20 20 20 21 21 21 22 21 20 20 20 21 22 23 24 24 25 27 28 28 27 27 27 25 23 21 18 17 16 16 16 16 15 14 13 14 15 15 16 16 16 17 18 19 24 28 29 30 32 31 31 32 33 35 37 39 40
5 5 5 7 8 9 10 10 10 11 12 13 15 17 18 18 19 19 18 19 19 19 20 20 20 20 20 20 19 19 19 19 20 21 21 20 19 20 21 22 23 25 26 28 29 30 30 31 31 31 31 29 27 24 21 19 19 19 19 17 16 15 16 17 17 17 16 17 16 17 16 16 18 21 25 29 30 29 29 34 38 39 40 41 41
6 7 8 10 10 11 11 11 12 13 14 16 17 17 17 18 18 17 18 18 18 18 19 18 18 19 20 20 19 19 19 19 20 20 21 21 21 21 21 22 24 25 26 27 28 28 28 29 29 30 30 30 29 28 27 25 25 25 25 24 23 22 23 23 21 19 18 17 15 15 14 14 14 14 16 20 24 26 27 32 37 39 39 41 42
10 10 11 12 12 12 12 12 13 14 16 16 16 17 17 17 17 17 17 17 17 18 18 18 19 19 20 20 20 19 20 19 20 20 21 22 22 22 22 23 24 24 24 24 24 25 25 25 25 26 26 26 27 28 29 29 29 29 29 28 28 28 27 26 24 22 21 19 18 16 15 13 12 12 11 10 14 20 25 28 32 35 36 39 41
12 12 12 13 13 13 14 14 15 16 17 17 17 18 19 19 18 18 18 18 17 18 18 18 19 20 20 21 21 22 23 22 21 20 20 20 21 21 21 22 23 22 22 22 22 22 22 22 22 23 23 24 24 24 25 26 27 28 28 29 29 28 26 24 24 23 21 20 18 17 16 14 12 11 10 9 9 15 22 26 29 32 35 38 41
13 13 13 14 14 15 15 16 17 18 18 19 20 20 20 19 19 19 19 18 18 18 19 19 20 21 21 22 23 24 25 25 24 23 22 21 20 19 19 20 20 20 19 20 21 21 22 22 22 22 22 22 22 22 22 22 21 22 23 24 24 24 24 25 25 25 24 24 22 19 17 16 14 12 10 9 8 9 16 23 26 27 30 36 38
14 14 14 15 16 16 17 17 19 19 20 20 20 21 20 18 18 19 18 18 19 19 19 20 20 21 22 23 24 25 26 26 27 27 26 25 24 23 21 20 19 18 18 19 20 20 21 21 22 22 21 20 20 20 20 19 19 19 18 17 16 17 20 23 25 26 28 28 28 27 25 23 21 18 15 12 9 8 9 16 21 21 24 29 33
14 14 15 16 17 18 19 19 20 20 20 20 20 20 19 18 18 18 18 19 20 20 21 21 22 23 24 24 25 25 26 27 27 28 28 28 28 27 26 24 22 20 20 20 21 21 21 22 23 22 22 22 22 23 22 22 21 20 18 16 15 15 16 18 21 25 29 31 32 32 32 30 27 24 22 19 15 13 10 7 13 17 19 22 27
14 15 16 17 18 19 20 20 20 20 20 18 18 18 18 18 18 18 19 20 21 22 22 23 24 24 25 25 25 25 26 26 25 26 26 27 27 27 26 25 24 23 22 22 22 22 22 22 22 22 23 25 27 28 28 28 27 25 24 23 23 23 22 21 21 22 25 30 32 34 34 33 29 25 22 20 17 14 12 9 6 10 12 16 23
15 17 18 18 19 19 20 20 19 19 18 17 17 18 17 18 19 19 20 21 22 23 24 24 25 25 25 25 25 25 24 24 24 24 23 24 24 24 24 24 23 23 23 23 22 22 22 22 23 24 26 27 29 31 32 33 33 32 32 34 34 34 33 31 29 26 25 25 26 29 32 32 30 25 20 16 16 14 12 9 6 3 5 9 15
18 19 19 19 18 18 18 18 18 17 16 16 17 18 18 18 19 20 21 22 23 24 24 24 24 24 24 24 24 24 24 24 24 24 23 22 21 21 21 22 22 22 22 22 21 22 22 23 25 26 27 28 30 32 34 34 35 36 38 39 40 40 40 39 38 36 32 27 23 24 25 26 28 27 24 20 18 16 13 9 5 6 6 7 13
19 20 19 19 18 17 17 17 17 16 16 17 17 17 17 18 19 20 21 22 22 23 23 23 24 23 23 23 23 23 24 24 25 25 24 23 21 19 19 19 20 21 21 21 21 22 22 23 24 26 27 29 31 32 34 35 37 38 39 39 40 40 41 41 42 41 38 34 29 26 21 19 21 25 27 26 23 20 16 12 12 17 18 17 20
19 20 19 19 18 17 17 17 17 17 17 16 16 16 16 17 19 20 20 20 21 21 21 22 22 21 21 22 22 23 23 23 24 25 25 24 22 20 19 19 19 19 20 20 20 21 22 23 25 27 28 30 32 33 34 35 36 37 38 38 38 38 38 40 42 42 41 40 38 35 30 25 24 25 26 27 25 22 20 18 18 21 22 24 25
18 19 19 18 18 18 17 17 17 16 16 15 15 17 18 19 20 21 20 20 20 20 20 20 20 20 21 21 22 22 22 21 21 21 22 23 23 22 21 20 19 19 18 18 19 21 23 25 26 29 30 32 33 34 34 34 35 35 36 36 37 37 37 38 40 41 41 42 43 42 40 37 34 31 30 29 28 24 21 21 21 21 20 23 26
18 18 17 16 17 17 17 17 16 16 15 16 18 20 22 23 24 23 23 22 22 22 21 21 20 20 20 20 21 21 21 20 19 18 19 20 22 23 22 21 21 20 19 19 21 24 26 27 28 30 31 32 33 33 33 33 33 34 34 34 35 36 37 37 37 37 39 41 42 43 43 42 40 38 36 36 34 31 28 26 25 24 22 24 27
17 16 15 14 15 15 16 17 17 17 18 20 22 24 25 25 25 25 25 25 24 24 24 23 22 22 21 21 21 21 20 19 18 18 19 19 20 21 21 22 22 20 20 22 24 26 28 29 30 30 31 31 32 32 31 31 31 32 32 32 33 34 35 36 35 35 36 38 39 40 41 42 42 41 40 39 39 38 37 35 34 33 32 31 30
16 15 13 13 14 15 16 17 18 18 20 22 24 25 25 24 24 24 24 24 24 24 24 24 23 23 23 23 22 22 21 20 20 20 20 20 19 19 20 21 21 21 21 24 26 27 28 29 29 29 30 30 31 31 30 30 30 30 30 31 31 32 32 33 33 33 35 36 37 37 38 39 39 40 40 40 39 39 38 38 38 38 38 37 34
15 13 11 12 14 17 17 18 19 20 21 22 22 22 22 21 21 21 21 21 21 21 22 22 22 22 23 23 23 23 22 22 21 20 20 20 19 18 19 20 22 22 23 26 27 26 27 27 27 27 27 28 28 29 29 29 29 29 30 30 30 29 28 29 30 31 32 33 34 35 36 36 36 37 37 38 38 38 37 37 37 36 37 39 38
13 11 10 13 17 19 19 19 20 21 21 20 20 20 20 20 20 19 18 18 19 20 20 21 21 21 22 22 22 22 21 21 21 21 20 20 19 18 19 21 22 22 24 25 25 24 25 25 25 25 24 24 24 25 26 27 27 28 29 29 29 28 27 27 28 29 30 31 31 32 33 33 34 34 34 34 35 35 34 34 35 35 35 36 37
12 10 12 16 20 20 19 19 20 20 20 19 19 19 19 19 19 19 18 18 19 19 19 20 20 20 21 21 21 21 21 20 20 20 20 20 19 19 20 21 22 23 23 23 22 22 22 23 24 24 23 22 21 21 22 23 24 25 26 27 27 28 27 27 27 28 28 28 29 30 30 31 32 32 31 32 32 31 31 30 30 31 32 32 33
13 13 15 18 21 21 20 20 20 19 19 19 19 18 18 18 17 18 18 18 18 17 17 18 18 19 19 20 21 21 21 21 20 19 19 19 19 19 21 22 22 22 22 21 20 20 20 21 22 22 22 22 21 19 19 20 21 22 23 24 25 26 27 27 26 26 27 27 27 27 28 29 29 30 29 30 30 29 29 27 26 25 26 27 28
15 16 18 20 21 21 21 20 20 19 19 18 18 17 17 16 16 16 15 15 15 15 15 15 15 15 16 17 18 19 20 20 20 19 18 17 17 18 20 22 22 21 21 20 20 20 20 20 21 21 21 21 20 20 19 18 18 19 19 20 22 23 24 25 24 24 25 26 25 25 26 26 27 27 28 28 28 27 27 26 25 24 22 22 22
17 19 20 21 21 21 20 20 19 18 17 17 16 15 14 14 13 13 13 12 12 12 12 12 12 12 13 13 14 16 17 18 19 19 18 17 17 18 18 19 20 20 20 20 20 19 19 20 20 20 20 20 19 19 19 18 18 18 18 18 18 18 20 21 22 22 23 24 23 23 23 23 23 24 24 25 25 25 25 25 25 24 22 20 19
18 19 20 20 19 19 18 18 17 16 15 14 13 13 12 11 11 10 10 10 9 9 9 9 9 9 10 10 11 12 13 15 17 18 18 18 17 17 16 16 17 18 19 19 19 19 19 19 19 19 19 19 19 18 18 18 18 17 17 17 17 17 17 18 19 19 21 21 20 20 20 20 20 20 21 21 22 22 23 24 24 24 24 22 20
19 19 18 18 17 17 16 15 14 13 12 11 11 10 9 8 8 7 7 6 6 6 7 6 6 7 7 8 9 10 11 12 14 15 16 16 16 16 15 14 14 15 16 16 17 18 18 18 18 18 18 19 18 18 17 17 16 16 16 16 16 16 16 16 16 16 17 17 17 17 17 18 18 18 18 19 18 19 20 21 21 21 21 21 20
19 17 16 15 14 14 13 12 11 10 9 8 7 6 5 4 4 3 3 3 3 4 4 5 5 6 6 7 7 8 9 10 11 12 13 14 14 14 14 14 13 12 13 14 15 15 15 16 17 17 17 18 18 18 17 17 17 16 16 16 15 15 14 14 14 14 14 14 14 15 15 15 15 15 16 16 16 16 16 17 17 16 16 16 16
17 15 14 12 11 11 10 9 8 8 7 7 5 4 3 1 0 0 1 2 3 3 4 4 4 5 6 7 7 7 7 8 9 10 10 11 12 12 12 12 12 11 11 12 12 13 13 13 14 15 15 16 16 17 17 17 17 17 17 16 15 14 13 13 12 12 12 12 12 12 12 13 13 13 13 13 13 13 13 13 13 12 12 12 12
14 13 12 11 10 10 9 8 8 7 6 6 6 5 4 3 2 2 2 3 3 5 5 5 5 5 6 7 7 7 7 8 8 8 9 9 9 10 10 10 10 10 10 10 11 11 11 12 12 12 12 13 14 14 15 16 16 16 16 16 16 15 14 13 11 10 10 10 10 10 10 10 11 11 11 10 9 9 9 9 9 9 9 9 8
13 12 11 11 10 10 9 9 8 7 7 7 7 6 6 5 4 4 4 4 5 6 7 7 7 6 5 6 7 7 7 7 7 7 7 7 7 7 8 8 9 9 9 9 9 10 10 10 10 11 11 11 11 11 12 13 14 14 15 15 15 15 15 14 13 12 10 9 8 8 8 8 9 9 9 9 8 6 5 5 5 6 6 6 6
12 11 11 11 10 10 10 9 8 7 7 8 8 8 7 6 6 5 6 6 6 6 7 8 8 6 5 5 6 6 6 6 6 5 5 5 5 6 6 6 7 7 8 8 8 9 9 9 10 10 10 10 10 10 10 10 10 11 12 12 13 13 14 14 14 14 12 11 9 8 7 7 7 7 7 7 7 6 5 4 4 4 4 3 3
12 12 11 10 10 9 10 10 9 8 8 8 9 9 9 8 7 6 6 6 7 7 6 7 7 6 5 5 4 4 5 7 7 6 6 5 5 5 5 5 6 6 7 7 8 8 8 8 8 9 9 9 9 9 9 9 9 9 9 9 10 11 11 12 13 13 13 12 12 11 10 9 8 7 7 6 6 5 5 4 3 3 2 1 1
12 12 11 11 10 9 9 9 9 9 9 9 9 9 9 9 8 7 7 7 7 7 6 6 6 6 5 5 4 3 4 6 7 8 7 7 6 6 6 6 6 7 7 7 7 7 7 7 8 8 8 8 9 8 8 9 9 8 8 8 7 7 8 9 9 10 11 11 11 11 11 11 10 10 9 8 7 6 6 5 4 3 2 2 2
11 12 12 11 11 11 10 9 9 10 10 11 11 10 10 10 9 9 9 9 9 8 7 6 6 5 5 4 4 4 5 7 7 8 9 9 8 7 7 7 7 8 8 8 8 8 7 7 8 8 8 8 8 8 8 8 8 8 8 7 7 6 6 6 7 7 8 8 8 8 9 9 9 9 9 9 8 8 7 6 5 5 4 4 4
11 11 11 10 10 11 11 11 11 11 11 12 12 12 12 12 11 11 11 11 11 11 10 8 7 6 5 5 5 6 7 8 9 9 10 10 10 9 8 7 7 7 8 9 9 9 8 8 8 8 8 8 8 8 8 8 8 8 7 7 7 6 6 6 6 6 6 6 7 7 7 7 7 7 8 8 8 8 8 7 6 6 5 5 5
11 11 11 11 10 10 11 12 13 14 14 14 14 14 14 14 13 13 13 12 13 12 12 11 10 9 9 8 8 8 9 9 10 11 11 11 12 11 10 9 8 8 8 9 10 10 10 9 9 8 8 8 9 9 8 8 8 8 8 8 7 7 7 7 7 6 6 7 7 7 8 8 8 7 7 8 8 8 8 8 7 7 6 6 6
13 13 14 14 13 12 12 12 13 15 16 16 16 16 16 16 16 16 15 15 14 14 13 13 12 13 12 12 12 11 11 11 11 12 13 13 13 13 13 12 11 10 10 10 10 10 10 10 9 9 10 10 10 10 9 9 9 10 10 9 9 9 9 9 9 9 8 8 8 8 8 8 8 8 8 8 8 8 8 8 8 7 7 7 7
Wind_Direction
268 269 277 291 306 320 329 336 338 338 340 339 339 343 345 346 344 344 344 342 341 340 338 335 334 334 333 333 332 330 330 329 327 326 324 323 322 322 322 319 316 317 312 296 280 268 269 275 279 285 289 287 286 286 285 286 288 287 282 278 278 276 274 271 272 278 282 282 281 280 277 265 244 235 236 240 243 244 242 236 232 227 222 220 218
239 268 301 316 334 347 350 351 349 351 356 355 357 359 357 355 352 349 346 344 342 342 341 339 339 340 339 338 338 337 336 335 333 331 328 326 325 323 323 320 314 310 308 306 296 275 269 274 279 285 289 288 287 285 286 288 288 288 287 282 277 275 274 273 273 277 279 281 280 278 274 261 246 241 239 239 241 243 241 235 230 227 223 222 221
258 315 325 333 349 359 0 2 3 7 10 7 6 6 3 359 355 352 351 349 347 346 346 345 345 346 345 345 346 345 344 342 340 339 337 334 333 331 329 327 323 316 307 301 300 292 286 285 286 289 289 285 286 285 287 289 288 287 287 285 281 277 273 273 273 274 277 279 277 273 271 262 248 243 243 242 241 241 242 237 230 227 224 222 222
335 331 332 339 355 10 20 23 21 19 15 14 14 12 8 4 0 358 356 353 351 350 349 349 349 349 350 350 351 350 348 346 345 346 345 343 341 339 337 335 332 328 319 305 297 296 293 292 296 300 292 280 281 289 290 290 290 289 287 286 285 280 276 274 273 275 276 277 276 271 267 261 249 242 245 248 243 238 239 240 234 229 226 223 222
335 339 346 356 21 44 46 39 32 26 22 21 20 15 11 7 3 0 358 356 355 354 353 353 353 353 352 352 352 351 349 348 349 350 351 352 351 349 346 344 341 339 333 320 304 300 299 300 306 313 306 287 284 290 292 292 292 291 290 288 286 283 281 278 279 281 279 276 276 273 266 260 249 243 246 248 242 234 234 236 235 232 229 225 224
334 352 20 53 69 71 62 48 39 32 26 22 18 14 10 6 3 1 0 360 359 357 357 357 357 356 355 353 351 350 351 352 353 354 354 357 359 357 356 354 351 346 341 333 321 312 309 308 310 312 309 299 293 293 294 293 293 292 292 292 290 287 284 281 280 282 279 276 276 272 265 258 250 242 242 244 240 233 233 235 235 234 231 227 225
348 50 89 96 91 81 64 48 38 30 24 19 14 9 7 5 5 4 3 2 1 1 2 2 1 359 358 356 353 354 356 357 357 358 358 1 2 0 359 358 356 353 350 347 340 330 325 322 318 314 309 303 298 295 293 292 291 290 290 290 291 290 288 284 281 280 280 278 275 271 263 258 251 239 236 242 245 241 238 235 232 233 233 229 227
85 103 106 105 94 74 57 42 31 26 22 18 12 10 11 11 11 9 7 7 7 7 8 8 7 4 1 1 2 2 2 360 0 2 1 2 5 5 0 356 355 355 355 354 349 342 335 329 322 316 308 299 292 290 290 293 294 295 295 293 291 290 289 287 283 280 280 278 278 275 265 254 246 237 232 237 239 238 237 236 234 234 234 232 229
109 111 108 102 83 62 49 34 27 25 23 21 19 20 22 22 19 16 14 15 16 15 14 13 11 9 8 9 11 10 9 8 10 10 6 5 7 8 5 0 355 352 350 351 348 343 337 330 322 316 311 303 293 288 287 290 294 296 297 295 292 289 289 287 284 281 281 281 282 280 267 255 247 239 234 235 236 237 240 240 237 235 234 234 233
115 115 110 96 75 56 42 33 30 30 30 31 33 33 32 31 27 24 22 24 24 23 21 19 16 15 16 18 18 18 18 19 21 19 15 13 11 10 9 6 2 357 353 353 350 342 337 331 323 317 311 306 300 294 292 290 289 290 289 288 287 286 286 286 285 283 283 284 286 283 272 260 253 246 241 241 242 242 242 240 237 235 234 233 232
121 119 108 87 68 53 44 40 37 38 39 40 40 39 37 34 31 30 29 30 29 28 27 25 23 21 21 21 22 23 25 24 22 20 19 17 13 12 11 8 6 5 4 3 358 351 347 344 338 332 327 326 325 323 321 315 310 306 302 296 290 287 284 284 286 284 282 282 283 283 278 267 257 251 248 246 245 245 245 242 237 234 232 228 226
123 115 99 79 68 59 51 47 44 43 44 43 41 39 35 33 32 32 32 31 29 28 27 26 24 22 21 21 21 23 24 21 18 16 16 15 11 11 11 10 9 10 10 9 6 2 2 2 357 353 352 352 351 350 349 343 336 329 322 313 304 297 290 286 286 287 284 280 277 276 277 275 266 259 255 250 245 245 246 244 239 234 232 229 227
120 107 94 82 73 64 53 46 44 44 44 42 39 36 33 32 32 32 32 30 28 28 27 26 25 24 23 22 22 22 22 20 17 13 13 12 10 10 12 13 13 14 13 12 9 7 8 7 5 3 2 1 1 1 359 354 349 343 336 328 319 311 304 294 287 285 284 281 277 272 272 274 272 271 271 262 248 242 242 243 240 234 231 231 231
115 100 95 85 72 58 45 40 41 43 44 41 36 34 33 33 34 35 34 32 31 32 30 28 28 28 27 25 24 23 22 22 19 16 15 14 12 13 14 15 16 17 17 16 17 18 18 17 15 15 12 7 4 3 360 356 353 348 341 333 325 317 312 306 295 285 280 278 277 274 270 265 263 268 275 269 255 246 244 244 240 236 235 236 236
118 105 94 79 62 48 42 41 44 46 45 42 40 40 40 40 40 40 38 36 35 35 32 29 29 29 27 25 23 22 23 22 21 20 19 17 18 22 24 24 25 27 28 29 31 32 31 29 26 25 21 15 9 4 359 356 354 350 345 340 336 330 322 318 314 305 296 288 281 278 272 264 258 258 263 266 263 259 256 253 249 246 242 237 232
118 103 83 66 57 55 55 53 54 54 52 51 51 50 49 48 47 45 42 40 38 36 32 29 28 28 27 25 23 22 22 21 21 24 25 22 26 33 34 33 34 35 36 37 37 37 37 35 33 31 27 23 18 11 5 4 3 1 357 352 349 349 346 340 337 333 325 316 306 294 282 270 260 254 254 259 261 262 260 254 248 244 237 230 226
109 92 78 75 73 72 71 66 64 64 62 59 58 57 55 53 50 47 44 40 38 35 33 30 28 27 25 24 24 24 23 23 24 28 30 27 30 38 40 40 40 39 38 38 38 39 39 37 36 36 33 29 25 20 17 19 21 19 17 13 8 7 8 3 358 353 347 338 328 317 304 289 272 259 254 253 256 261 258 249 242 235 228 225 222
101 95 91 88 84 80 77 73 70 69 66 63 61 59 57 54 51 47 44 40 37 37 37 35 33 30 27 26 26 26 25 26 27 30 31 31 33 39 43 45 44 42 42 41 40 40 40 39 37 36 35 31 26 23 23 26 29 30 29 26 23 21 18 12 8 5 1 353 342 331 320 309 297 283 270 260 256 257 255 249 244 237 228 224 221
103 99 95 91 88 84 81 77 74 71 67 64 62 60 58 56 53 50 48 44 43 43 43 41 39 38 35 32 31 30 30 30 29 30 32 32 34 39 42 45 45 43 42 42 41 39 39 38 34 33 32 28 23 22 22 26 32 35 34 32 31 29 25 18 14 13 8 2 356 348 338 328 319 312 305 288 261 250 248 246 244 243 238 230 222
103 99 95 93 90 87 84 80 77 73 68 66 66 65 63 61 59 58 56 53 52 51 49 48 47 46 44 41 40 39 38 35 32 31 31 32 34 36 37 38 39 38 36 36 35 35 34 33 29 26 22 18 15 15 17 22 29 33 37 39 39 37 33 28 27 26 22 18 14 8 1 355 347 336 328 318 279 248 243 240 238 241 241 233 222
103 100 98 95 92 89 86 82 79 76 73 72 73 71 69 67 66 65 63 61 59 57 55 54 54 52 50 48 47 46 45 43 40 37 35 33 32 31 30 29 28 29 30 31 30 28 27 25 21 17 14 9 6 6 9 14 19 26 34 39 39 38 38 37 37 37 36 36 34 31 28 22 15 8 357 340 313 272 251 239 232 229 228 226 221
105 103 101 99 96 92 89 85 83 81 80 79 78 78 76 74 72 70 68 65 63 61 61 60 59 57 55 52 50 49 48 46 44 42 40 37 35 33 30 26 22 23 27 30 30 28 28 28 26 22 19 15 13 14 15 16 16 21 29 31 27 28 35 38 39 40 41 41 39 38 37 33 28 24 20 14 1 337 290 250 238 231 223 219 216
110 109 106 103 98 95 92 89 87 86 85 84 84 84 83 79 75 73 71 70 69 67 66 66 65 63 60 57 53 51 49 46 43 42 41 39 38 36 34 32 29 31 35 38 40 41 42 42 41 38 35 36 38 39 38 36 34 35 36 34 30 31 36 40 43 44 45 44 41 39 38 34 30 27 23 21 19 11 354 297 253 242 233 226 217
115 112 108 104 100 98 95 94 93 92 91 90 89 88 85 82 78 76 74 74 74 72 70 69 68 66 64 61 58 54 52 49 46 43 42 40 39 38 37 37 37 39 45 49 50 49 48 47 47 47 48 51 52 52 52 51 49 49 49 50 49 47 46 46 47 48 48 48 45 43 41 37 34 31 27 22 20 19 14 0 307 255 244 236 222
118 113 109 105 102 101 100 100 99 98 96 94 91 90 87 83 80 78 77 76 75 73 71 69 68 67 65 63 60 56 54 52 49 47 46 44 42 41 41 42 43 45 51 55 54 53 52 51 51 53 54 56 57 56 55 55 55 54 54 55 54 53 51 49 48 47 47 49 50 49 47 45 41 39 37 32 29 31 31 22 1 286 257 243 222
117 112 109 107 106 107 106 106 105 101 99 95 93 90 87 83 82 80 78 77 74 73 71 68 67 66 64 62 60 55 53 51 49 47 47 46 46 45 45 46 47 49 54 58 58 57 56 55 54 55 55 56 56 57 56 56 57 57 55 55 55 54 53 51 50 50 49 49 50 52 51 50 48 46 46 46 45 48 50 50 74 120 147 195 190
115 112 110 109 110 111 109 109 108 104 101 98 94 90 86 84 84 83 81 78 75 72 70 67 65 64 62 60 58 54 50 48 46 45 44 45 46 46 47 47 48 50 54 57 59 60 61 60 60 59 58 57 56 56 56 56 57 57 57 56 56 56 55 54 53 53 53 53 53 55 53 49 47 48 49 51 55 62 67 76 102 116 128 152 155
115 113 112 112 112 111 110 110 109 107 104 100 95 91 88 87 86 84 82 79 76 72 69 66 65 63 61 59 57 54 51 47 45 43 42 43 45 47 47 47 47 49 52 57 60 63 63 62 61 59 58 56 55 54 54 55 55 56 57 58 58 57 57 56 54 53 54 54 55 57 58 56 54 55 56 57 62 68 73 83 97 106 118 131 128
116 113 113 112 112 111 112 113 112 109 107 102 97 94 92 90 87 84 81 78 75 73 71 68 66 64 62 59 58 56 53 51 48 46 46 46 47 49 50 51 51 52 54 57 61 62 60 57 56 56 55 54 54 54 54 54 55 55 56 56 56 56 55 55 54 53 53 55 56 57 58 60 61 62 63 64 68 72 77 85 93 99 108 115 109
118 115 113 112 112 113 114 114 112 109 106 103 101 99 95 92 89 85 82 79 76 75 74 72 70 68 65 62 60 57 55 54 52 52 52 52 53 54 56 57 58 58 59 60 61 60 59 57 56 55 54 53 52 52 52 52 53 54 54 54 55 55 55 55 54 53 53 54 56 57 58 60 61 62 64 66 68 71 74 79 85 89 95 99 98
120 117 116 117 119 118 116 115 113 109 106 106 105 102 98 93 89 85 83 80 78 76 74 73 72 71 68 66 63 61 58 57 54 53 54 55 55 57 59 61 61 59 58 59 59 58 59 59 58 56 55 53 51 51 50 50 51 52 52 53 54 55 55 55 54 54 53 54 56 57 59 60 60 61 64 67 69 72 74 77 80 82 85 89 92
122 118 118 123 128 127 122 118 115 111 110 109 107 103 99 95 90 87 84 81 79 77 75 73 71 70 68 67 65 64 62 60 57 55 53 53 53 54 56 59 59 57 56 57 58 56 56 56 56 55 55 53 51 51 50 49 49 49 49 50 51 53 54 54 55 55 55 54 55 57 58 59 60 60 61 64 66 69 72 75 77 80 83 86 88
122 120 120 128 135 134 128 122 119 117 115 112 107 103 100 98 94 90 86 83 80 77 74 72 70 67 66 64 64 63 62 61 60 58 56 54 52 52 54 56 56 54 53 55 56 55 53 53 52 52 53 53 53 52 51 50 50 49 49 49 50 51 54 56 57 57 57 56 56 56 58 59 60 60 59 60 63 65 67 70 73 77 80 82 83
125 121 124 134 137 135 130 126 124 122 119 115 110 105 102 99 97 94 91 87 82 79 75 72 70 67 65 63 61 60 60 59 58 58 57 56 55 55 55 55 55 53 52 53 54 53 51 51 51 50 50 51 52 52 51 50 49 49 49 50 51 52 55 57 59 58 59 59 58 57 57 58 59 59 58 58 59 61 63 67 70 73 77 79 80
130 127 130 136 136 133 131 129 127 124 121 117 113 108 104 101 98 96 94 91 87 83 78 74 71 67 64 61 59 57 56 56 56 55 55 55 55 54 54 53 53 52 52 52 52 51 49 49 49 48 47 48 49 50 50 48 47 48 49 50 51 53 55 57 59 59 59 59 60 59 58 58 59 59 58 58 57 57 59 61 66 70 75 79 81
137 136 135 137 136 133 132 132 129 128 125 121 117 113 108 104 101 97 94 91 88 84 80 75 69 64 60 57 54 52 51 50 52 52 52 52 51 51 52 52 51 51 51 51 50 49 47 45 45 45 46 47 48 49 49 48 47 47 49 50 51 53 55 56 58 60 60 59 59 60 61 60 60 61 60 59 58 58 58 59 62 66 71 77 82
143 142 139 138 137 135 134 134 132 131 128 124 120 116 111 106 103 99 95 92 89 85 80 74 68 61 56 51 48 45 44 43 45 47 49 49 49 48 50 51 50 50 50 50 49 47 44 42 42 43 44 45 46 47 48 49 49 48 49 51 52 54 56 57 58 60 61 59 58 58 60 61 61 62 63 63 61 60 60 61 62 66 70 75 80
145 144 141 139 138 137 136 135 134 132 130 127 123 119 114 110 106 101 97 94 89 85 79 73 66 60 53 47 42 39 37 36 38 40 42 44 46 47 47 48 48 48 48 47 47 47 44 42 42 42 42 43 44 44 44 45 47 48 49 52 54 55 56 56 57 58 60 59 57 57 57 57 58 60 61 63 64 64 64 64 64 66 70 74 79
147 144 141 139 138 137 136 135 134 133 132 129 127 122 118 113 108 103 98 92 85 80 75 67 60 55 50 42 36 32 29 28 29 30 32 36 39 43 46 45 45 45 44 44 45 46 46 45 43 43 43 43 43 43 42 41 42 44 46 49 51 52 52 52 53 55 57 58 58 58 57 56 56 58 60 62 63 65 67 67 67 67 68 71 76
149 146 142 139 138 137 135 134 134 133 133 132 130 126 122 117 111 104 97 88 79 71 63 55 46 42 39 34 28 23 20 18 18 20 23 26 30 35 40 42 42 41 40 40 41 43 45 47 46 45 45 45 44 44 43 41 40 40 41 42 44 46 48 49 50 52 56 58 58 58 58 59 58 58 60 61 63 65 67 67 67 67 67 67 70
151 150 148 146 145 145 144 142 140 139 139 139 137 134 130 122 109 96 81 65 53 45 40 36 26 19 17 17 15 12 10 7 5 5 9 14 19 24 30 35 39 40 39 38 38 39 41 44 46 47 47 46 46 45 45 45 44 42 41 40 39 40 42 44 46 50 54 58 58 57 57 57 58 59 61 63 65 66 68 68 68 67 68 69 70
157 158 158 158 159 160 159 159 159 159 159 159 161 164 171 176 174 345 339 346 348 351 358 6 5 1 2 4 2 359 356 353 352 352 354 359 5 11 19 25 30 34 37 37 36 37 38 39 40 43 44 45 46 46 46 46 47 47 45 43 41 39 38 38 41 45 49 53 56 56 56 56 56 56 61 66 69 70 70 70 69 69 70 73 77
169 171 175 178 180 181 181 183 187 190 187 185 191 202 215 229 243 267 296 311 318 324 331 337 342 347 354 357 356 353 347 342 341 341 341 343 349 357 5 15 21 26 29 30 30 31 34 34 34 36 37 38 41 43 44 45 46 47 48 47 46 45 44 41 39 40 43 47 49 50 52 54 55 55 59 65 71 73 73 72 70 68 67 71 79
179 183 189 192 192 193 194 194 197 201 200 199 206 216 223 231 247 274 297 307 311 313 313 315 319 327 339 347 350 350 346 339 336 337 334 332 336 343 350 2 12 17 20 21 20 21 23 25 27 29 30 31 32 34 38 41 44 45 46 47 47 47 48 48 46 44 44 44 44 43 44 47 50 52 54 58 63 68 72 72 72 71 70 72 82
190 194 197 200 201 201 202 203 205 206 206 208 214 221 230 240 258 283 298 302 303 304 303 303 306 312 321 333 342 353 358 355 350 346 340 334 333 334 338 346 358 6 9 10 9 10 11 13 15 18 21 24 25 25 27 31 35 38 41 43 45 46 47 48 48 48 48 48 46 43 40 41 43 44 45 47 50 53 56 59 63 67 73 79 91
195 198 201 204 208 211 215 220 222 221 221 223 226 230 239 251 266 282 291 291 291 293 295 295 296 298 303 309 320 347 5 7 3 356 347 338 332 329 328 332 337 345 353 355 355 356 358 359 1 4 7 10 13 16 19 20 22 25 29 32 37 41 43 45 47 48 50 52 53 52 49 45 42 41 40 37 34 32 31 32 33 36 43 52 54
204 208 210 212 215 218 222 228 232 233 233 235 237 240 245 253 264 276 283 284 282 285 291 293 289 284 280 278 283 310 339 354 1 0 354 344 333 324 321 322 323 324 329 335 338 340 341 343 344 347 349 351 354 358 3 8 12 15 16 17 20 25 30 35 40 42 45 48 51 54 56 54 50 48 46 42 36 30 22 14 6 359 346 325 306
216 220 223 225 228 229 230 233 237 240 240 240 243 247 251 256 264 273 280 283 281 281 287 292 288 277 269 266 270 290 310 325 339 348 352 349 341 328 317 315 316 316 316 318 321 322 325 327 330 331 333 334 335 336 339 344 350 357 2 5 5 4 6 11 17 23 29 32 34 36 40 43 43 43 41 39 37 32 24 16 8 358 346 330 314
223 226 230 235 240 242 241 239 239 242 245 247 248 251 255 260 266 271 276 279 279 279 281 285 284 280 279 280 283 292 303 312 319 327 335 341 341 335 322 312 311 313 314 313 312 311 310 311 314 318 320 320 320 319 320 322 325 330 337 343 347 349 348 347 349 352 356 0 4 5 6 8 10 13 17 19 21 19 15 11 4 357 349 341 331
234 238 242 247 251 254 253 249 244 244 246 248 251 254 258 262 267 272 274 276 278 278 278 278 278 277 278 281 284 288 295 302 308 312 317 323 328 331 326 315 307 308 313 314 312 309 306 303 302 304 306 308 308 308 307 307 308 310 314 318 323 327 329 328 329 329 329 331 335 338 340 341 342 344 348 352 357 1 2 359 355 350 343 335 328
249 250 250 251 253 256 259 259 255 251 250 250 252 256 261 265 270 275 276 276 276 277 276 275 275 276 278 280 282 284 288 291 295 300 303 307 312 317 321 317 308 302 302 305 308 308 306 304 301 298 297 297 298 299 299 298 298 298 300 303 305 308 310 312 313 313 314 316 319 322 324 325 326 326 330 335 339 344 347 348 348 346 340 333 324